Location: Bowen Observatory
(35.3292°N, 120.7429°W)
Time: 03:31:45
(UTC-08:00)

LightSail 2 - Visible Passes

Search period start: 23 February 2020 00:00
Search period end: 04 March 2020 00:00
Orbit: 699 x 722 km, 24.0° (Epoch: 22 February)

Date Brightness Start Highest point End Pass type
(mag) Time Alt. Az. Time Alt. Az. Time Alt. Az.
23 Feb 6.8 05:01:22 18° SSW 05:02:09 19° S 05:05:42 10° SSE visible
24 Feb 7.5 04:06:14 14° SSE 04:06:14 14° SSE 04:07:19 10° SE visible
24 Feb 7.3 05:46:26 10° SW 05:48:17 12° SSW 05:50:08 10° S visible
25 Feb 7.2 04:50:01 15° S 04:50:01 15° S 04:52:28 10° SSE visible
